Lid_Strength_Index
7 10 12 10 9 8 9 10 11 10 9 9 10 10 9 8 8 8 8 8 6 5 4 3 2 2 2 1 2 2 2 3 3 3 3 2 3 3 3 3 3 4 4 4
9 11 9 7 7 8 9 11 11 10 9 9 10 11 10 10 8 7 7 7 6 6 6 4 3 3 2 2 2 2 1 3 3 3 2 2 3 4 5 4 4 4 3 3
11 9 7 7 9 10 10 11 11 11 11 11 11 12 11 10 8 7 6 5 5 5 5 5 4 3 2 2 2 2 2 2 3 3 2 3 5 5 6 5 5 4 3 3
10 7 8 9 9 9 12 9 9 10 12 15 12 16 12 10 9 7 7 7 6 5 4 4 4 4 3 2 2 2 2 2 2 2 3 4 4 5 5 5 5 4 3 5
10 9 9 10 9 8 10 8 9 9 12 13 12 15 13 10 11 9 8 7 7 6 5 4 4 3 3 2 2 2 2 2 2 1 3 5 5 5 5 5 6 7 8 7
9 7 7 8 7 8 7 9 9 10 12 17 13 14 14 12 10 9 7 6 6 7 5 4 4 3 3 2 3 2 3 3 3 2 5 6 7 7 7 9 10 9 8 7
9 9 8 7 9 8 9 12 16 17 18 18 12 14 13 9 8 8 7 8 7 5 5 5 5 4 3 3 3 3 4 7 7 7 8 8 9 9 9 9 9 9 8 8
13 15 9 7 9 11 11 11 16 20 20 17 12 16 12 8 7 7 7 7 6 6 5 5 4 4 4 4 4 5 6 8 8 9 9 9 9 9 9 8 8 8 8 8
14 13 8 8 7 8 10 13 10 15 15 18 15 12 10 8 8 8 7 7 7 6 6 6 6 6 7 7 7 7 7 8 9 9 8 8 8 8 8 8 8 8 8 8
10 14 9 8 7 7 9 8 13 14 19 20 15 15 14 11 9 8 9 8 7 7 7 6 6 7 7 7 7 8 8 8 9 9 9 8 8 8 8 8 8 8 8 8
9 11 12 9 11 11 11 11 11 12 15 18 20 16 11 10 9 9 8 7 7 7 6 6 6 7 7 7 7 7 8 9 8 8 8 8 8 7 7 8 8 8 8 8
9 11 15 12 8 8 10 10 11 17 16 16 17 15 9 9 8 7 7 7 6 6 6 6 6 6 7 6 6 6 7 7 8 8 9 8 8 7 7 7 7 7 8 8
9 12 16 14 12 10 11 10 10 11 14 16 19 16 9 9 9 8 8 7 6 6 7 7 7 7 6 6 5 5 7 8 8 7 9 9 8 7 7 7 7 8 9 9
7 11 13 16 13 11 13 11 10 11 17 16 16 13 10 10 9 9 8 8 7 7 7 8 7 7 6 5 5 6 8 8 7 8 9 8 7 6 7 7 8 8 8 8
9 12 12 11 10 11 11 11 11 12 12 15 13 12 10 10 10 9 8 8 7 7 7 8 8 7 6 6 6 7 7 7 7 8 9 7 6 7 7 8 8 8 8 8
8 13 13 14 10 11 12 11 11 11 11 11 11 12 10 10 9 9 8 8 8 7 8 7 6 6 6 6 6 6 7 7 7 8 7 6 6 6 7 8 8 9 9 9
11 13 15 16 13 13 16 13 11 11 11 11 14 12 10 10 9 9 8 7 7 7 6 5 5 6 6 6 6 6 7 7 8 7 6 7 7 8 9 9 9 9 9 8
12 13 15 17 17 20 12 9 9 10 11 10 10 10 9 8 8 8 8 8 8 7 7 7 6 5 5 6 6 7 7 7 7 8 8 8 9 9 9 9 9 9 9 9
9 13 16 18 18 14 11 9 10 11 11 9 10 9 9 7 8 8 6 6 7 8 9 9 9 8 8 8 8 9 10 10 10 10 9 9 10 9 8 9 9 9 9 9
11 14 16 17 19 20 13 9 8 8 14 8 8 8 8 9 13 9 7 8 10 10 9 10 10 10 10 10 10 11 11 11 11 10 9 9 9 9 9 10 9 9 9 9
17 17 18 20 20 15 10 8 8 15 14 8 7 8 8 9 8 7 9 10 9 10 10 10 10 11 10 9 9 10 10 10 9 8 8 8 8 8 8 8 9 9 10 9
14 16 18 15 18 17 7 9 12 11 8 8 8 8 7 7 7 9 10 10 10 11 10 10 11 10 9 9 9 9 9 9 8 8 8 8 8 8 8 9 9 9 10 10
14 12 13 13 13 8 8 8 7 7 7 8 7 6 6 6 9 10 11 11 11 11 12 11 11 10 10 10 10 11 10 9 9 10 10 10 9 8 8 10 10 11 10 12
10 8 12 11 9 9 7 6 6 6 7 8 8 7 8 10 10 11 11 11 11 11 11 11 11 11 10 10 10 11 11 11 11 11 11 10 10 10 10 10 10 10 12 11
10 9 11 11 9 8 7 7 7 8 8 9 9 9 10 10 11 11 11 11 11 11 11 10 11 11 11 11 11 11 11 11 12 11 11 10 12 11 10 10 9 9 9 9
9 10 13 14 8 9 9 8 8 8 9 9 10 10 10 11 12 12 12 11 11 11 11 11 11 11 12 12 12 11 11 11 11 11 11 12 12 12 10 10 9 7 7 6